Date String (YYYY-MM-DD hh:mm:ss) UTC,Instrument flags,Ambient pressure (hPa),Sample flow (lpm),Bypass flow (lpm),Sample temperature (°C),Ambient temperature (°C),ASC tube jacket temperature (°C),LED temperature (°C),Box temperature (°C),Sample RH (%),Span deviation,Mass concentration (μg/m³),Mass concentration (μg/m³),Mass concentration (μg/m³)
DateTimeUTC,F1_M11,P_M11,Q1_M11,Q2_M11,T1_M11,T2_M11,T3_M11,T4_M11,T5_M11,U1_M11,ZSPAN_M11,X2_M11,X0_M11,X1_M11
2022-05-09 17:00:00,,0812.6,4.99,0.00,27.7,27.1,00.0,36.6,29.5,21.8,-000.8,0008.46,0020.53,0006.10
2022-05-09 17:01:00,,0812.6,5.00,0.00,27.7,27.1,00.0,36.6,29.5,21.7,-000.6,0008.47,0021.02,0006.07
2022-05-09 17:02:00,,0812.7,5.01,0.00,27.7,27.1,00.0,36.6,29.5,21.8,-000.4,0008.49,0021.05,0006.06
2022-05-09 17:03:00,,0812.5,5.00,0.00,27.7,27.1,00.0,36.6,29.5,21.7,-000.7,0008.54,0021.11,0006.04
2022-05-09 17:04:00,,0812.5,5.00,0.00,27.7,27.1,00.0,36.6,29.5,22.3,-000.9,0008.61,0021.32,0006.01
2022-05-09 17:05:00,,0812.6,5.00,0.00,27.7,27.1,00.0,36.6,29.5,21.9,-000.3,0008.55,0021.39,0005.94
2022-05-09 17:06:00,,0812.4,5.00,0.00,27.7,27.1,00.0,36.6,29.6,21.5,-000.5,0008.58,0021.25,0005.91
2022-05-09 17:07:00,,0812.5,4.99,0.00,27.7,27.1,00.0,36.6,29.6,21.4,-000.4,0008.56,0020.65,0005.86
2022-05-09 17:08:00,,0812.6,5.00,0.00,27.7,27.1,00.0,36.6,29.5,21.3,0000.0,0008.51,0020.30,0005.79
2022-05-09 17:09:00,,0812.6,5.00,0.00,27.7,27.1,00.0,36.6,29.5,21.3,0000.0,0008.42,0019.48,0005.75
2022-05-09 17:10:00,,0812.6,5.01,0.00,27.7,27.1,00.0,36.6,29.6,21.4,0000.0,0008.43,0019.36,0005.71
2022-05-09 17:11:00,,0812.6,5.01,0.00,27.7,27.1,00.0,36.6,29.6,21.2,0000.0,0008.43,0020.87,0005.69
2022-05-09 17:12:00,,0812.6,5.00,0.00,27.7,27.1,00.0,36.6,29.6,21.8,0000.0,0008.41,0021.23,0005.66
2022-05-09 17:13:00,,0812.6,5.00,0.00,27.7,27.1,00.0,36.6,29.6,22.4,0000.0,0008.41,0021.42,0005.60
2022-05-09 17:14:00,,0812.6,5.01,0.00,27.7,27.1,00.0,36.7,29.6,21.1,0000.0,0008.41,0021.48,0005.52
2022-05-09 17:15:00,,0812.6,5.01,0.00,27.7,27.1,00.0,36.7,29.6,21.0,0000.0,0008.34,0021.67,0005.44
2022-05-09 17:16:00,,0812.6,5.00,0.00,27.7,27.1,00.0,36.7,29.6,20.8,0000.0,0008.32,0021.75,0005.40
2022-05-09 17:17:00,,0812.7,5.00,0.00,27.7,27.2,00.0,36.7,29.6,20.9,0000.0,0008.24,0022.14,0005.34
2022-05-09 17:18:00,,0812.6,4.99,0.00,27.7,27.2,00.0,36.7,29.6,20.9,0000.0,0008.20,0022.73,0005.29
2022-05-09 17:19:00,,0812.6,4.99,0.00,27.7,27.1,00.0,36.7,29.6,21.1,0000.0,0008.15,0023.59,0005.25
2022-05-09 17:20:00,,0812.6,5.00,0.00,27.7,27.1,00.0,36.7,29.6,21.1,0000.7,0008.08,0023.46,0005.20
2022-05-09 17:21:00,,0812.6,4.99,0.00,27.7,27.2,00.0,36.7,29.6,21.1,0000.5,0008.06,0023.91,0005.16
2022-05-09 17:22:00,,0812.7,5.00,0.00,27.7,27.2,00.0,36.7,29.5,20.8,0000.4,0008.03,0022.54,0005.13
2022-05-09 17:23:00,,0812.7,5.01,0.00,27.7,27.2,00.0,36.7,29.5,20.7,0000.6,0007.99,0022.37,0005.09
2022-05-09 17:24:00,,0812.6,4.99,0.00,27.7,27.1,00.0,36.7,29.6,21.4,0000.5,0007.87,0021.35,0005.06
2022-05-09 17:25:00,,0812.6,5.00,0.00,27.7,27.1,00.0,36.7,29.6,21.0,0000.2,0007.81,0021.54,0005.06
2022-05-09 17:26:00,,0812.7,5.01,0.00,27.7,27.1,00.0,36.7,29.5,21.2,0000.2,0007.73,0021.42,0005.04
2022-05-09 17:27:00,,0812.6,5.00,0.00,27.7,27.1,00.0,36.7,29.6,20.9,0000.1,0007.70,0021.40,0005.02
2022-05-09 17:28:00,,0812.9,5.00,0.00,27.7,27.1,00.0,36.7,29.6,21.8,0000.1,0007.64,0020.94,0005.00
2022-05-09 17:29:00,,0812.7,4.99,0.00,27.8,27.2,00.0,36.7,29.6,21.3,0000.0,0007.63,0020.10,0004.98
2022-05-09 17:30:00,,0812.7,5.01,0.00,27.7,27.1,00.0,36.7,29.6,21.6,0000.0,0007.55,0018.34,0004.98
2022-05-09 17:31:00,,0812.6,5.00,0.00,27.7,27.1,00.0,36.7,29.6,21.1,0000.0,0007.53,0018.14,0004.97
2022-05-09 17:32:00,,0812.7,5.00,0.00,27.7,27.1,00.0,36.7,29.6,21.4,0000.0,0007.43,0017.57,0004.95
2022-05-09 17:33:00,,0812.8,5.00,0.00,27.8,27.1,00.0,36.7,29.6,20.9,0000.0,0007.33,0017.40,0004.92
2022-05-09 17:34:00,,0812.8,4.99,0.00,27.7,27.1,00.0,36.7,29.6,20.6,0000.0,0007.34,0017.34,0004.93
2022-05-09 17:35:00,,0812.7,5.00,0.00,27.8,27.2,00.0,36.7,29.6,20.7,0000.0,0007.34,0018.20,0004.93
2022-05-09 17:36:00,,0812.6,5.00,0.00,27.8,27.2,00.0,36.7,29.6,20.8,0000.0,0007.33,0018.19,0004.92
2022-05-09 17:37:00,,0812.6,5.00,0.00,27.8,27.1,00.0,36.7,29.6,20.9,0000.0,0007.38,0017.82,0004.92
2022-05-09 17:38:00,,0812.6,5.00,0.00,27.8,27.1,00.0,36.7,29.6,20.7,0000.0,0007.32,0019.06,0004.91
2022-05-09 17:39:00,,0812.6,5.00,0.00,27.8,27.1,00.0,36.7,29.6,21.0,0000.0,0007.35,0019.82,0004.92
2022-05-09 17:40:00,,0812.7,4.99,0.00,27.8,27.2,00.0,36.7,29.6,20.9,0000.0,0007.34,0019.67,0004.90
2022-05-09 17:41:00,,0812.7,5.01,0.00,27.8,27.2,00.0,36.7,29.6,21.1,-002.1,0007.38,0020.10,0004.86
2022-05-09 17:42:00,,0812.7,4.99,0.00,27.8,27.2,00.0,36.7,29.6,21.4,-002.2,0007.44,0020.65,0004.84
2022-05-09 17:43:00,,0812.7,5.00,0.00,27.8,27.2,00.0,36.7,29.7,21.5,-001.8,0007.46,0021.10,0004.81
2022-05-09 17:44:00,,0812.7,5.00,0.00,27.8,27.2,00.0,36.8,29.7,20.9,-002.0,0007.45,0022.51,0004.77
2022-05-09 17:45:00,,0812.7,4.99,0.00,27.8,27.2,00.0,36.8,29.6,20.7,-002.9,0007.42,0022.13,0004.73
2022-05-09 17:46:00,,0812.7,5.01,0.00,27.8,27.2,00.0,36.8,29.6,20.6,-002.5,0007.48,0021.68,0004.74
2022-05-09 17:47:00,,0812.6,5.01,0.00,27.8,27.2,00.0,36.8,29.6,20.6,-000.9,0007.48,0021.76,0004.72
2022-05-09 17:48:00,,0812.6,5.00,0.00,27.8,27.2,00.0,36.8,29.7,20.6,0000.8,0007.49,0022.70,0004.70
2022-05-09 17:49:00,,0812.6,5.00,0.00,27.8,27.2,00.0,36.8,29.7,20.5,0001.1,0007.55,0022.02,0004.67
2022-05-09 17:50:00,,0812.7,5.00,0.00,27.8,27.2,00.0,36.8,29.7,21.1,0001.1,0007.51,0021.04,0004.63
2022-05-09 17:51:00,,0812.7,4.99,0.00,27.8,27.2,00.0,36.8,29.7,20.6,0001.1,0007.47,0020.68,0004.62
2022-05-09 17:52:00,,0812.7,5.00,0.00,27.8,27.2,00.0,36.8,29.7,20.4,0001.3,0007.51,0021.18,0004.64
2022-05-09 17:53:00,,0812.7,5.01,0.00,27.8,27.2,00.0,36.8,29.7,20.6,0001.2,0007.46,0021.58,0004.65
2022-05-09 17:54:00,,0812.8,5.00,0.00,27.9,27.3,00.0,36.8,29.7,20.5,0000.1,0007.43,0021.05,0004.65
2022-05-09 17:55:00,,0812.8,4.98,0.00,27.9,27.3,00.0,36.8,29.7,20.4,0000.0,0007.45,0020.17,0004.67
2022-05-09 17:56:00,,0812.7,5.01,0.00,27.9,27.3,00.0,36.8,29.7,20.3,0000.0,0007.50,0020.54,0004.67
2022-05-09 17:57:00,,0812.6,5.00,0.00,27.8,27.2,00.0,36.8,29.7,20.7,0000.0,0007.52,0020.66,0004.67
2022-05-09 17:58:00,,0812.8,4.99,0.00,27.8,27.2,00.0,36.8,29.7,20.3,0000.0,0007.52,0020.34,0004.64
2022-05-09 17:59:00,,0812.8,5.00,0.00,27.8,27.2,00.0,36.8,29.7,20.6,0000.0,0007.52,0019.59,0004.61
